Time,TemperatureF,DewpointF,PressureIn,WindDirection,WindDirectionDegrees,WindSpeedMPH,WindSpeedGustMPH,Humidity,HourlyPrecipIn,Conditions,Clouds,dailyrainin,SoftwareType,DateUTC
2013-04-07 00:08:00,63.2,42.0,30.07,SSW,212,4.0,-999.0,47,-99.99,,,0.00,weatherlink.com 1.10,2013-04-07 05:08:00,
2013-04-07 00:23:00,63.3,43.0,30.07,SE,142,5.0,-999.0,47,-99.99,,,0.00,weatherlink.com 1.10,2013-04-07 05:23:00,
2013-04-07 00:38:00,62.7,43.0,30.07,SE,128,1.0,-999.0,48,-99.99,,,0.00,weatherlink.com 1.10,2013-04-07 05:38:00,
2013-04-07 00:53:00,62.0,43.0,30.07,SSE,162,1.0,-999.0,50,-99.99,,,0.00,weatherlink.com 1.10,2013-04-07 05:53:00,
2013-04-07 03:03:00,52.0,45.0,30.07,SW,227,1.0,-999.0,76,-99.99,,,0.00,weatherlink.com 1.10,2013-04-07 08:03:00,
2013-04-07 03:39:00,50.3,44.0,30.07,South,187,2.0,-999.0,79,-99.99,,,0.00,weatherlink.com 1.10,2013-04-07 08:39:00,
2013-04-07 03:54:00,50.5,44.0,30.07,South,186,0.0,-999.0,77,-99.99,,,0.00,weatherlink.com 1.10,2013-04-07 08:54:00,
2013-04-07 04:39:00,48.0,43.0,30.09,NW,326,0.0,-999.0,82,-99.99,,,0.00,weatherlink.com 1.10,2013-04-07 09:39:00,
2013-04-07 04:54:00,47.8,43.0,30.09,NW,326,0.0,-999.0,82,-99.99,,,0.00,weatherlink.com 1.10,2013-04-07 09:54:00,
2013-04-07 05:09:00,47.4,43.0,30.09,NW,326,0.0,-999.0,83,-99.99,,,0.00,weatherlink.com 1.10,2013-04-07 10:09:00,
2013-04-07 05:24:00,46.9,43.0,30.10,NW,326,0.0,-999.0,85,-99.99,,,0.00,weatherlink.com 1.10,2013-04-07 10:24:00,
2013-04-07 05:39:00,46.2,42.0,30.10,NW,326,0.0,-999.0,85,-99.99,,,0.00,weatherlink.com 1.10,2013-04-07 10:39:00,
2013-04-07 05:54:00,45.6,42.0,30.11,NW,326,0.0,-999.0,87,-99.99,,,0.00,weatherlink.com 1.10,2013-04-07 10:54:00,
2013-04-07 06:09:00,44.9,42.0,30.11,NW,326,0.0,-999.0,88,-99.99,,,0.00,weatherlink.com 1.10,2013-04-07 11:09:00,
2013-04-07 06:24:00,44.4,41.0,30.11,NW,326,0.0,-999.0,89,-99.99,,,0.00,weatherlink.com 1.10,2013-04-07 11:24:00,
2013-04-07 06:39:00,44.2,42.0,30.12,NW,326,0.0,-999.0,90,-99.99,,,0.00,weatherlink.com 1.10,2013-04-07 11:39:00,
2013-04-07 06:54:00,44.0,42.0,30.13,NW,326,0.0,-999.0,91,-99.99,,,0.00,weatherlink.com 1.10,2013-04-07 11:54:00,
2013-04-07 07:09:00,44.4,42.0,30.13,NW,326,0.0,-999.0,91,-99.99,,,0.00,weatherlink.com 1.10,2013-04-07 12:09:00,
2013-04-07 07:39:00,46.1,43.0,30.14,NW,326,0.0,-999.0,90,-99.99,,,0.00,weatherlink.com 1.10,2013-04-07 12:39:00,
2013-04-07 07:54:00,48.0,45.0,30.14,NW,326,0.0,-999.0,88,-99.99,,,0.00,weatherlink.com 1.10,2013-04-07 12:54:00,
2013-04-07 08:09:00,50.0,46.0,30.14,NW,326,0.0,-999.0,85,-99.99,,,0.00,weatherlink.com 1.10,2013-04-07 13:09:00,
2013-04-07 08:24:00,51.9,47.0,30.14,NW,326,0.0,-999.0,84,-99.99,,,0.00,weatherlink.com 1.10,2013-04-07 13:24:00,
2013-04-07 08:40:00,53.8,48.0,30.14,NW,326,0.0,-999.0,82,-99.99,,,0.00,weatherlink.com 1.10,2013-04-07 13:40:00,
2013-04-07 08:55:00,55.4,49.0,30.14,NW,326,1.0,-999.0,78,-99.99,,,0.00,weatherlink.com 1.10,2013-04-07 13:55:00,
2013-04-07 09:09:00,57.2,50.0,30.14,NW,326,0.0,-999.0,76,-99.99,,,0.00,weatherlink.com 1.10,2013-04-07 14:09:00,
2013-04-07 09:25:00,59.6,50.0,30.14,SSE,150,2.0,-999.0,70,-99.99,,,0.00,weatherlink.com 1.10,2013-04-07 14:25:00,
2013-04-07 09:40:00,62.2,51.0,30.14,SSE,160,0.0,-999.0,66,-99.99,,,0.00,weatherlink.com 1.10,2013-04-07 14:40:00,
2013-04-07 09:55:00,63.3,50.0,30.14,SSE,153,9.0,-999.0,63,-99.99,,,0.00,weatherlink.com 1.10,2013-04-07 14:55:00,
2013-04-07 10:10:00,64.3,50.0,30.14,South,180,3.0,-999.0,61,-99.99,,,0.00,weatherlink.com 1.10,2013-04-07 15:10:00,
2013-04-07 10:40:00,66.4,51.0,30.14,ESE,105,2.0,-999.0,57,-99.99,,,0.00,weatherlink.com 1.10,2013-04-07 15:40:00,
2013-04-07 10:55:00,67.5,51.0,30.14,WSW,245,0.0,-999.0,55,-99.99,,,0.00,weatherlink.com 1.10,2013-04-07 15:55:00,
2013-04-07 11:10:00,67.9,50.0,30.13,West,262,2.0,-999.0,54,-99.99,,,0.00,weatherlink.com 1.10,2013-04-07 16:10:00,
2013-04-07 11:25:00,68.9,50.0,30.13,SSW,209,3.0,-999.0,51,-99.99,,,0.00,weatherlink.com 1.10,2013-04-07 16:25:00,
2013-04-07 11:40:00,69.2,51.0,30.12,SW,218,3.0,-999.0,52,-99.99,,,0.00,weatherlink.com 1.10,2013-04-07 16:40:00,
2013-04-07 11:55:00,70.0,51.0,30.11,South,172,1.0,-999.0,51,-99.99,,,0.00,weatherlink.com 1.10,2013-04-07 16:55:00,
2013-04-07 12:10:00,70.7,51.0,30.10,WNW,296,2.0,-999.0,50,-99.99,,,0.00,weatherlink.com 1.10,2013-04-07 17:10:00,
2013-04-07 12:25:00,71.4,50.0,30.09,SW,222,4.0,-999.0,47,-99.99,,,0.00,weatherlink.com 1.10,2013-04-07 17:25:00,
2013-04-07 12:40:00,72.1,50.0,30.08,West,280,1.0,-999.0,45,-99.99,,,0.00,weatherlink.com 1.10,2013-04-07 17:40:00,
2013-04-07 12:55:00,72.2,49.0,30.07,WSW,243,2.0,-999.0,44,-99.99,,,0.00,weatherlink.com 1.10,2013-04-07 17:55:00,
2013-04-07 13:10:00,72.9,50.0,30.07,West,269,1.0,-999.0,44,-99.99,,,0.00,weatherlink.com 1.10,2013-04-07 18:10:00,
2013-04-07 13:25:00,73.5,50.0,30.06,West,263,3.0,-999.0,44,-99.99,,,0.00,weatherlink.com 1.10,2013-04-07 18:25:00,
2013-04-07 13:40:00,73.6,49.0,30.05,WNW,297,5.0,-999.0,42,-99.99,,,0.00,weatherlink.com 1.10,2013-04-07 18:40:00,
2013-04-07 13:55:00,74.0,49.0,30.05,WSW,251,2.0,-999.0,42,-99.99,,,0.00,weatherlink.com 1.10,2013-04-07 18:55:00,
2013-04-07 14:10:00,74.5,50.0,30.04,West,269,2.0,-999.0,43,-99.99,,,0.00,weatherlink.com 1.10,2013-04-07 19:10:00,
2013-04-07 14:25:00,74.9,51.0,30.04,SSW,200,2.0,-999.0,43,-99.99,,,0.00,weatherlink.com 1.10,2013-04-07 19:25:00,
2013-04-07 14:41:00,75.1,50.0,30.04,SW,234,7.0,-999.0,42,-99.99,,,0.00,weatherlink.com 1.10,2013-04-07 19:41:00,
2013-04-07 14:55:00,74.8,50.0,30.03,SW,234,1.0,-999.0,42,-99.99,,,0.00,weatherlink.com 1.10,2013-04-07 19:55:00,
2013-04-07 15:11:00,74.9,51.0,30.03,West,260,3.0,-999.0,43,-99.99,,,0.00,weatherlink.com 1.10,2013-04-07 20:11:00,
2013-04-07 15:26:00,74.9,51.0,30.02,South,175,5.0,-999.0,43,-99.99,,,0.00,weatherlink.com 1.10,2013-04-07 20:26:00,
2013-04-07 15:41:00,75.0,51.0,30.01,SSW,200,4.0,-999.0,43,-99.99,,,0.00,weatherlink.com 1.10,2013-04-07 20:41:00,
2013-04-07 15:56:00,75.9,52.0,30.01,West,273,1.0,-999.0,43,-99.99,,,0.00,weatherlink.com 1.10,2013-04-07 20:56:00,
2013-04-07 16:11:00,75.8,51.0,30.00,SW,217,5.0,-999.0,42,-99.99,,,0.00,weatherlink.com 1.10,2013-04-07 21:11:00,
2013-04-07 16:26:00,75.9,52.0,30.00,South,181,8.0,-999.0,43,-99.99,,,0.00,weatherlink.com 1.10,2013-04-07 21:26:00,
2013-04-07 16:41:00,75.9,51.0,30.00,West,281,1.0,-999.0,42,-99.99,,,0.00,weatherlink.com 1.10,2013-04-07 21:41:00,
2013-04-07 16:56:00,75.1,51.0,30.00,SE,140,2.0,-999.0,43,-99.99,,,0.00,weatherlink.com 1.10,2013-04-07 21:56:00,
2013-04-07 17:11:00,75.4,51.0,30.00,SSE,162,4.0,-999.0,42,-99.99,,,0.00,weatherlink.com 1.10,2013-04-07 22:11:00,
2013-04-07 17:26:00,75.0,50.0,30.00,SW,221,2.0,-999.0,42,-99.99,,,0.00,weatherlink.com 1.10,2013-04-07 22:26:00,
2013-04-07 18:11:00,73.8,50.0,30.00,West,278,0.0,-999.0,44,-99.99,,,0.00,weatherlink.com 1.10,2013-04-07 23:11:00,
2013-04-07 19:41:00,68.3,50.0,30.00,SW,222,3.0,-999.0,53,-99.99,,,0.00,weatherlink.com 1.10,2013-04-08 00:41:00,
2013-04-07 20:26:00,67.1,51.0,30.00,SE,139,4.0,-999.0,56,-99.99,,,0.00,weatherlink.com 1.10,2013-04-08 01:26:00,
2013-04-07 20:41:00,67.9,51.0,30.00,SSE,159,1.0,-999.0,56,-99.99,,,0.00,weatherlink.com 1.10,2013-04-08 01:41:00,
2013-04-07 21:11:00,65.4,51.0,30.01,South,170,0.0,-999.0,60,-99.99,,,0.00,weatherlink.com 1.10,2013-04-08 02:11:00,
2013-04-07 21:26:00,64.9,51.0,30.01,SSW,196,1.0,-999.0,61,-99.99,,,0.00,weatherlink.com 1.10,2013-04-08 02:26:00,
2013-04-07 21:41:00,64.2,51.0,30.02,West,259,0.0,-999.0,63,-99.99,,,0.00,weatherlink.com 1.10,2013-04-08 02:41:00,
2013-04-07 21:56:00,63.6,52.0,30.02,SSW,207,1.0,-999.0,65,-99.99,,,0.00,weatherlink.com 1.10,2013-04-08 02:56:00,
2013-04-07 22:26:00,62.1,51.0,30.02,SSW,200,0.0,-999.0,67,-99.99,,,0.00,weatherlink.com 1.10,2013-04-08 03:26:00,
2013-04-07 22:41:00,61.1,51.0,30.02,SSW,200,0.0,-999.0,69,-99.99,,,0.00,weatherlink.com 1.10,2013-04-08 03:41:00,
2013-04-07 23:11:00,58.7,52.0,30.02,SSW,200,0.0,-999.0,78,-99.99,,,0.00,weatherlink.com 1.10,2013-04-08 04:11:00,
2013-04-07 23:26:00,57.7,52.0,30.01,SSW,198,0.0,-999.0,80,-99.99,,,0.00,weatherlink.com 1.10,2013-04-08 04:26:00,
2013-04-07 23:41:00,56.9,51.0,30.02,SSW,198,0.0,-999.0,81,-99.99,,,0.00,weatherlink.com 1.10,2013-04-08 04:41:00,